Home   Weather   Nijmegen   Past weeks

Flag for Netherlands Past Weather in Nijmegen, Netherlands — Yesterday and Last 2 Weeks

46 °F


Feels Like: 46 °F
Forecast: 38 / 53 °F
Wind: 2 mph from North

Location: Volkel

Current Time: Oct 25, 2016 at 7:02:35 AM

Latest Report: Oct 25, 2016 at 5:55 AM

Visibility: 1 mi

Pressure: 30.07 "Hg

Humidity: 100%

Dew Point: 46 °F

Location of NijmegenLocation

Past Weather in Nijmegen — Graph


Nijmegen Temperature Yesterday

Maximum temperature yesterday: 48 °F (at 1:25 PM)
Minimum temperature yesterday: 39 °F (at 12:25 AM)
Average temperature yesterday: 45 °F

High & Low Weather Summary for the Past Weeks

High66 °F (Oct 16, 2:55 PM)100% (Oct 10, 5:25 AM)30.24 "Hg (Oct 10, 5:25 AM)
Low30 °F (Oct 23, 1:55 AM)51% (Oct 10, 3:25 PM)29.65 "Hg (Oct 15, 1:02 AM)
Average48 °F87%30.00 "Hg
* Reported Oct 10 5:03 AM — Oct 25 5:55 AM, Nijmegen, Weather by CustomWeather, © 2016

Note: Actual official high and low records may vary slightly from our data, if they occured in-between our weather recording intervals... More about our weather records


Nijmegen Weather History for the Previous 24 Hours

Scroll right to see more
Time TempWeatherWind HumidityBarometerVisibility
5:55 AM
Tue, Oct 25
46 °FFog.2 mph100%30.07 "Hg1 mi
5:25 AM46 °FFog.3 mph100%30.07 "Hg1 mi
4:55 AM46 °FFog.2 mph100%30.07 "Hg1 mi
4:25 AM46 °FFog.3 mph100%30.04 "Hg1 mi
4:00 AM46 °FFog.3 mph100%30.04 "Hg1 mi
3:55 AM46 °FFog.2 mph100%30.04 "Hg1 mi
3:25 AM46 °FFog.2 mph100%30.04 "Hg1 mi
2:55 AM46 °FFog.2 mph100%30.01 "Hg1 mi
2:25 AM46 °FFog.2 mph100%30.01 "Hg0 mi
1:55 AM46 °FFog.2 mph100%30.01 "Hg0 mi
12:55 AM46 °FFog.1 mph100%29.98 "Hg0 mi
12:25 AM46 °FFog.2 mph100%29.98 "Hg0 mi
11:55 PM
Mon, Oct 24
46 °FFog.1 mph100%29.98 "Hg1 mi
11:25 PM46 °FFog.3 mph100%29.98 "Hg1 mi
10:55 PM46 °FFog.3 mph100%29.98 "Hg1 mi
10:25 PM46 °FFog.3 mph100%29.95 "Hg1 mi
9:55 PM46 °FFog.3 mph100%29.95 "Hg1 mi
9:25 PM46 °FFog.3 mph100%29.95 "Hg1 mi
8:55 PM46 °FFog.3 mph100%29.95 "Hg2 mi
8:25 PM46 °FFog.5 mph100%29.95 "Hg2 mi
7:55 PM46 °FFog.5 mph100%29.95 "Hg2 mi
7:25 PM46 °FFog.5 mph100%29.95 "Hg2 mi
6:55 PM46 °FFog.6 mph100%29.92 "Hg2 mi
6:25 PM46 °FFog.8 mph100%29.92 "Hg2 mi
5:55 PM46 °FDrizzle. Low clouds.7 mph93%29.92 "Hg2 mi
5:25 PM46 °FFog.6 mph93%29.92 "Hg2 mi
4:55 PM46 °FFog.7 mph93%29.92 "Hg3 mi
4:25 PM46 °FFog.7 mph100%29.89 "Hg3 mi
4:03 PM46 °FFog.6 mph93%29.89 "Hg2 mi
3:55 PM46 °FFog.7 mph93%29.89 "Hg2 mi
3:25 PM46 °FLight rain. Broken clouds.6 mph93%29.89 "Hg2 mi
2:55 PM46 °FDrizzle. Broken clouds.8 mph93%29.89 "Hg3 mi
2:25 PM48 °FLight rain. More clouds than sun.8 mph87%29.89 "Hg4 mi
1:55 PM48 °FFog.8 mph87%29.89 "Hg4 mi
1:25 PM48 °FFog.7 mph87%29.89 "Hg4 mi
12:55 PM46 °FFog.12 mph93%29.89 "Hg4 mi
12:25 PM46 °FFog.8 mph87%29.89 "Hg4 mi
11:55 AM46 °FFog.9 mph87%29.89 "Hg4 mi
11:25 AM46 °FFog.9 mph87%29.89 "Hg4 mi
10:55 AM45 °FFog.8 mph93%29.89 "Hg5 mi
10:25 AM45 °FFog.8 mph93%29.89 "Hg4 mi
9:55 AM45 °FFog.9 mph93%29.89 "Hg4 mi
9:25 AM45 °FFog.8 mph87%29.89 "Hg4 mi
8:55 AM43 °FFog.7 mph93%29.89 "Hg4 mi
8:25 AM43 °FFog.7 mph93%29.89 "Hg3 mi
7:55 AM43 °FFog.7 mph93%29.89 "Hg3 mi
7:25 AM43 °FFog.6 mph93%29.89 "Hg3 mi
7:01 AM43 °FFog.6 mph93%29.92 "Hg3 mi
Weather by CustomWeather, © 2016

See weather overviewHow to use our weather pages